Location: Most
(50.5133°N, 13.6207°E)
Time: 09:07:19
(UTC+01:00)

Oscar 11 - Pass Details

Date: 03 December 2021
Orbit: 611 x 625 km, 97.6° (Epoch: 26 January)

Event Time Altitude Azimuth Distance (km) Brightness Sun altitude
Rises 16:36:11 0° 169° (S) 2,894 10.7 -5.3°
Reaches altitude 10° 16:38:22 10° 171° (S) 1,994 9.9 -5.6°
Maximum altitude 16:42:43 76° 257° (WSW) 650 7.4 -6.2°
Drops below altitude 10° 16:47:06 10° 344° (NNW) 2,013 9.6 -6.8°
Sets 16:49:19 0° 346° (NNW) 2,925 10.4 -7.1°
